Home > Time Zones > World Clock > Weather > Chad > Sarh > Past weeks

Flag for Chad Weather past 2 weeks in Sarh, Chad

Now
82 °F

Sunny.


Feels Like: 85 °F
Forecast: 73 / 95 °F
Wind: No wind

Location: Sarh Airport

Current Time: Oct 20, 2014 at 9:34:07 AM

Latest Report: Oct 20, 2014 at 9:00 AM


Visibility: 10 mi

Pressure: 29.92 "Hg

Humidity: 62%

Dew point: 68 °F

Location of SarhLocation

Historic Weather in Sarh — Graph

°F

Sarh temperature yesterday

Maximum temperature yesterday: 95 °F (at 1:00 PM)
Minimum temperature yesterday: 70 °F (at 5:00 AM)
Average temperature yesterday: 82 °F

Past Weeks' High & Low Weather Summary

 TemperatureHumidityPressure
High95 °F (Oct 9, 3:00 PM)100% (Oct 7, 2:00 PM)30.01 "Hg (Oct 7, 2:00 PM)
Low70 °F (Oct 19, 5:00 AM)30% (Oct 18, 1:00 PM)29.77 "Hg (Oct 7, 4:00 PM)
Average81 °F76%29.89 "Hg
* Reported Oct 5 8:00 AM — Oct 20 8:00 AM, Sarh, Weather by CustomWeather, © 2014

Note: Actual official high and low records may vary slightly from our data, if they occured in-between our weather recording intervals... More about our weather records

Advertising

Sarh weather history for previous 24 hours

 ConditionsComfort  
Time TempWeatherWind HumidityBarometerVisibility
8:00 AM
Oct 20
79 °FSunny.No wind74%29.92 "Hg10 mi
7:00 AM73 °FSunny.No wind89%29.89 "Hg10 mi
6:00 AM72 °FSunny.No wind94%29.89 "Hg10 mi
4:00 AM73 °FClear.No wind89%29.89 "Hg10 mi
2:00 AM75 °FClear.No wind89%29.89 "Hg10 mi
12:00 AM77 °FClear.No wind83%29.92 "Hg10 mi
11:00 PM
Oct 19
77 °FClear.No wind83%29.92 "Hg10 mi
10:00 PM79 °FClear.No wind79%29.89 "Hg10 mi
9:00 PM79 °FPassing clouds.No wind79%29.89 "HgN/A
7:00 PM82 °FPassing clouds.No wind70%29.83 "HgN/A
6:00 PM90 °FThunderstorms. Passing clouds.No wind49%29.83 "HgN/A
5:00 PM91 °FSunny.No wind38%29.80 "Hg10 mi
4:00 PM91 °FHot.No wind36%29.80 "HgN/A
3:00 PM93 °FPassing clouds.No wind32%29.80 "HgN/A
2:00 PM93 °FPassing clouds.No wind32%29.80 "HgN/A
1:00 PM95 °FPassing clouds.2 mph32%29.83 "HgN/A
12:00 PM93 °FPassing clouds.5 mph34%29.92 "HgN/A
11:00 AM91 °FSunny.No wind41%29.92 "Hg10 mi
10:00 AM90 °FSunny.No wind41%29.92 "Hg10 mi
9:00 AM88 °FSunny.No wind59%29.92 "Hg10 mi
Weather by CustomWeather, © 2014

See weather overviewHow to use our weather pages